Find Starlink 31957

NORAD ID: 59926 Int'l Des: 2024-106 Owner: SPXS Country: US Constellation: starlink operational
LEOCIRCULAR

リアルタイム位置

3D地球を読み込み中...

Starlink 31957について

説明を読み込み中...

次回通過

Passes for default location (London). Set your location on the main map for personalized predictions.

高度履歴

Loading altitude history...

軌道要素

1 59926U 24106E 26124.76837404 -.00001436 00000-0 -42686-4 0 9994
2 59926 43.0041 15.4518 0001504 277.4657 82.6024 15.27574747109154
Epoch: May 4, 2026 • Age: 19 hours

現在のステータス

高度 484.0 km
速度 7.63 km/s
衛星直下点 28.88°N, 18.45°W
打ち上げ日 Jun 1, 2024
運用期間 1.9 years
タイプ internet

技術仕様

分類 Payload
質量 730.00 kg
乾燥質量 700.00 kg
総質量 730.00 kg
長さ 0.30 m
直径 4.10 m
スパン 29.00 m
形状 Box + pan
製造者 SPXS
バスタイプ Starlink V2M
フェーズステータス In Orbit
所有者/国 SPXS/US

Most Searched